Home > Weather > Honolulu > Past weeks

Flag for USA Weather for the Past 2 Weeks in Honolulu, Hawaii, USA

Now
81 °F

Scattered clouds.


Feels Like: 83 °F
Forecast: 71 / 81 °F
Wind: 14 mph from Northeast

Location: Honolulu International Airport

Current Time: Apr 28, 2016 at 6:40:10 PM

Latest Report: Apr 28, 2016 at 5:53 PM


Visibility: 10 mi

Pressure: 30.05 "Hg

Humidity: 56%

Dew Point: 64 °F

Location of HonoluluLocation

Historic Weather in Honolulu — Graph

°F

Honolulu Temperature Yesterday

Maximum temperature yesterday: 86 °F (at 12:53 PM)
Minimum temperature yesterday: 74 °F (at 2:53 AM)
Average temperature yesterday: 79 °F

High & Low Weather Summary for the Past Weeks

 TemperatureHumidityPressure
High87 °F (Apr 28, 2:53 PM)94% (Apr 17, 4:29 PM)30.15 "Hg (Apr 17, 4:29 PM)
Low68 °F (Apr 19, 4:53 AM)42% (Apr 28, 2:53 PM)29.96 "Hg (Apr 17, 3:53 PM)
Average77 °F67%30.06 "Hg
* Reported Apr 13 4:53 PM — Apr 28 4:53 PM, Honolulu, Weather by CustomWeather, © 2016

Note: Actual official high and low records may vary slightly from our data, if they occured in-between our weather recording intervals... More about our weather records

Advertising

Honolulu Weather History for the Previous 24 Hours

Scroll right to see more
 ConditionsComfort  
Time TempWeatherWind HumidityBarometerVisibility
4:53 PM
Thu, Apr 28
83 °FScattered clouds.17 mph51%30.03 "Hg10 mi
3:53 PM85 °FScattered clouds.16 mph50%30.03 "Hg10 mi
2:53 PM87 °FScattered clouds.15 mph42%30.03 "Hg10 mi
1:53 PM86 °FScattered clouds.17 mph45%30.05 "Hg10 mi
12:53 PM85 °FScattered clouds.12 mph45%30.06 "Hg10 mi
11:53 AM86 °FScattered clouds.14 mph45%30.09 "Hg10 mi
10:53 AM84 °FScattered clouds.17 mph49%30.10 "Hg10 mi
9:53 AM83 °FScattered clouds.13 mph53%30.11 "Hg10 mi
8:53 AM82 °FScattered clouds.18 mph55%30.11 "Hg10 mi
7:53 AM80 °FScattered clouds.13 mph58%30.10 "Hg10 mi
6:53 AM77 °FScattered clouds.6 mph66%30.08 "Hg10 mi
5:53 AM75 °FPartly cloudy.10 mph71%30.07 "Hg10 mi
4:53 AM75 °FPassing clouds.7 mph71%30.06 "Hg10 mi
3:53 AM75 °FPartly cloudy.13 mph71%30.06 "Hg10 mi
2:53 AM75 °FPassing clouds.12 mph71%30.06 "Hg10 mi
1:53 AM75 °FPassing clouds.12 mph71%30.07 "Hg10 mi
12:53 AM76 °FPassing clouds.12 mph72%30.09 "Hg10 mi
11:53 PM
Wed, Apr 27
76 °FPassing clouds.16 mph69%30.10 "Hg10 mi
10:53 PM77 °FPassing clouds.15 mph66%30.11 "Hg10 mi
9:53 PM77 °FPassing clouds.14 mph69%30.11 "Hg10 mi
8:53 PM77 °FPassing clouds.14 mph66%30.10 "Hg10 mi
7:53 PM77 °FPassing clouds.13 mph66%30.08 "Hg10 mi
6:53 PM78 °FScattered clouds.10 mph64%30.06 "Hg10 mi
Weather by CustomWeather, © 2016

See weather overviewHow to use our weather pages